Buffalo, NY

2:30 PM EDT on October 14, 2019 (GMT -0400)
Buffalo Niagara International

Weather History for KBUF - August, 2019

Change the Weather History Date:

Thursday, August 22, 2019

  Actual Average Record
Temperature  
Mean Temperature 68 °F 69 °F  
Max Temperature 74 °F 78 °F 88 °F (2008)
Min Temperature 61 °F 60 °F 42 °F (1982)
Degree Days  
Heating Degree Days 0 1  
Month to date heating degree days 0 7  
Since 1 June heating degree days 62 80  
Since 1 July heating degree days 0 16  
Cooling Degree Days 3 5  
Month to date cooling degree days 155 124  
Year to date cooling degree days 523 450  
Since 1 June cooling degree days 515 424  
Growing Degree Days 18 (Base 50)    
Moisture  
Dew Point 55 °F    
Average Humidity 67    
Maximum Humidity 87    
Minimum Humidity 47    
Precipitation  
Precipitation 0.00 in 0.10 in 1.77 in (1968)
Month to date precipitation 3.38 2.34  
Year to date precipitation 28.13 24.24  
Snow  
Snow 0.00 in 0.00 in 0.00 in ()
Month to date snowfall 0.0 0.0  
Since 1 June snowfall 0.0 0.0  
Since 1 July snowfall 0.0 0.0  
Snow Depth 0.00 in    
Sea Level Pressure  
Sea Level Pressure 29.93 in    
Wind  
Wind Speed 7 mph (WNW)    
Max Wind Speed 16 mph    
Max Gust Speed 20 mph    
Visibility 10 miles    
Events      
T = Trace of Precipitation, MM = Missing Value Source: NWS Daily Summary

Daily Weather History Graph

Daily Weather History Graph

Search for Another Location

Airport or City:

Astronomy

Aug. 22, 2019 Rise Set
Actual Time 6:28 AM EDT 8:06 PM EDT
Civil Twilight 5:58 AM EDT 8:36 PM EDT
Nautical Twilight 5:21 AM EDT 9:12 PM EDT
Astronomical Twilight 4:42 AM EDT 9:51 PM EDT
Moon 11:45 PM EDT (8/22) 1:11 PM EDT (8/22)
Length of Visible Light 14h 38m
Length of Day
13h 38m
Waning Gibbous, 60% of the Moon is Illuminated
Aug 22
Waning Gibbous
Aug 23
Last Quarter
Aug 30
New
Sep 5
First Quarter
Sep 14
Full

Hourly Weather History & Observations

Time (EDT) Temp. Dew Point Humidity Pressure Visibility Wind Dir Wind Speed Gust Speed Precip Events Conditions
12:31 AM 73.9 °F 68.0 °F 82% 29.85 in 10.0 mi SW 11.5 mph - N/A   Scattered Clouds
12:54 AM 73.9 °F 69.1 °F 85% 29.85 in 10.0 mi SW 12.7 mph - N/A   Scattered Clouds
1:54 AM 73.0 °F 66.0 °F 79% 29.86 in 10.0 mi West 11.5 mph - N/A   Scattered Clouds
2:54 AM 71.1 °F 66.0 °F 84% 29.84 in 10.0 mi WNW 6.9 mph - N/A   Mostly Cloudy
3:15 AM 71.1 °F 59.0 °F 66% 29.86 in 10.0 mi North 10.4 mph - N/A   Overcast
3:54 AM 70.0 °F 57.0 °F 63% 29.87 in 10.0 mi NNW 8.1 mph - N/A   Overcast
4:54 AM 69.1 °F 53.1 °F 57% 29.88 in 10.0 mi NNW 8.1 mph - N/A   Overcast
5:54 AM 68.0 °F 53.1 °F 59% 29.90 in 10.0 mi NW 8.1 mph - N/A   Overcast
6:54 AM 68.0 °F 52.0 °F 56% 29.92 in 10.0 mi WNW 4.6 mph - N/A   Mostly Cloudy
7:54 AM 68.0 °F 53.1 °F 59% 29.93 in 10.0 mi West 5.8 mph - N/A   Mostly Cloudy
8:54 AM 68.0 °F 51.1 °F 55% 29.94 in 10.0 mi West 6.9 mph - N/A   Mostly Cloudy
9:54 AM 69.1 °F 50.0 °F 51% 29.95 in 10.0 mi WNW 8.1 mph - N/A   Mostly Cloudy
10:54 AM 69.1 °F 51.1 °F 53% 29.96 in 10.0 mi West 5.8 mph - N/A   Mostly Cloudy
11:54 AM 70.0 °F 48.9 °F 47% 29.97 in 10.0 mi West 9.2 mph - N/A   Mostly Cloudy
12:54 PM 72.0 °F 52.0 °F 49% 29.97 in 10.0 mi West 9.2 mph - N/A   Mostly Cloudy
1:54 PM 71.1 °F 52.0 °F 51% 29.96 in 10.0 mi West 9.2 mph - N/A   Mostly Cloudy
2:54 PM 71.1 °F 54.0 °F 55% 29.95 in 10.0 mi West 8.1 mph - N/A   Mostly Cloudy
3:54 PM 72.0 °F 54.0 °F 53% 29.95 in 10.0 mi WNW 11.5 mph - N/A   Mostly Cloudy
4:54 PM 73.0 °F 55.0 °F 53% 29.95 in 10.0 mi Variable 5.8 mph - N/A   Mostly Cloudy
5:54 PM 73.0 °F 53.1 °F 49% 29.95 in 10.0 mi North 9.2 mph - N/A   Mostly Cloudy
6:54 PM 71.1 °F 53.1 °F 53% 29.95 in 10.0 mi NNW 4.6 mph - N/A   Mostly Cloudy
7:54 PM 69.1 °F 53.1 °F 57% 29.96 in 10.0 mi NNW 4.6 mph - N/A   Mostly Cloudy
8:54 PM 69.1 °F 51.1 °F 53% 29.97 in 10.0 mi Calm Calm - N/A   Partly Cloudy
9:54 PM 66.9 °F 52.0 °F 59% 29.98 in 10.0 mi West 4.6 mph - N/A   Partly Cloudy
10:54 PM 64.0 °F 54.0 °F 70% 29.99 in 10.0 mi North 6.9 mph - N/A   Scattered Clouds
11:54 PM 63.0 °F 53.1 °F 70% 30.00 in 10.0 mi North 8.1 mph - N/A   Mostly Cloudy